Home   Weather   Foz do Iguaçu   Past weeks

Flag for Brazil Past Weather in Foz do Iguaçu, Paraná, Brazil — Yesterday and Last 2 Weeks

Now
88 °F

Sunny.


Feels Like: 85 °F
Forecast: 57 / 89 °F
Wind: 9 mph from Northwest

Location: Foz Do Iguacu Aeroporto

Current Time: Sep 27, 2016 at 2:15:00 PM

Latest Report: Sep 27, 2016 at 1:00 PM


Visibility: 10 mi

Pressure: 30.01 "Hg

Humidity: 27%

Dew Point: 50 °F

Location of Foz do IguaçuLocation

Past Weather in Foz do Iguaçu — Graph

°F

Foz do Iguaçu Temperature Yesterday

Maximum temperature yesterday: 86 °F (at 3:00 PM)
Minimum temperature yesterday: 48 °F (at 6:00 AM)
Average temperature yesterday: 67 °F

High & Low Weather Summary for the Past Weeks

 TemperatureHumidityPressure
High93 °F (Sep 12, 3:00 PM)100% (Sep 14, 12:00 AM)30.21 "Hg (Sep 14, 12:00 AM)
Low41 °F (Sep 15, 7:00 AM)24% (Sep 26, 3:00 PM)29.56 "Hg (Sep 12, 5:00 PM)
Average67 °F64%30.00 "Hg
* Reported Sep 12 1:00 PM — Sep 27 1:00 PM, Foz do Iguaçu, Weather by CustomWeather, © 2016

Note: Actual official high and low records may vary slightly from our data, if they occured in-between our weather recording intervals... More about our weather records

Advertising

Foz do Iguaçu Weather History for the Previous 24 Hours

Scroll right to see more
 ConditionsComfort  
Time TempWeatherWind HumidityBarometerVisibility
1:00 PM
Tue, Sep 27
88 °FSunny.9 mph27%30.01 "Hg10 mi
12:00 PM86 °FSunny.6 mph29%30.04 "Hg10 mi
11:00 AM82 °FSunny.3 mph40%30.04 "Hg10 mi
10:00 AM77 °FSunny.5 mph51%30.07 "Hg10 mi
9:00 AM72 °FSunny.12 mph57%30.07 "Hg10 mi
8:00 AM64 °FSunny.8 mph78%30.04 "Hg10 mi
7:00 AM54 °FSunny.5 mph100%30.01 "Hg10 mi
6:00 AM54 °FClear.2 mph100%30.01 "Hg10 mi
5:00 AM55 °FClear.2 mph100%29.98 "Hg10 mi
4:00 AM55 °FClear.2 mph100%29.95 "Hg10 mi
3:00 AM55 °FClear.No wind94%29.95 "Hg10 mi
2:00 AM55 °FClear.No wind94%29.95 "Hg10 mi
1:00 AM57 °FClear.No wind88%29.95 "Hg10 mi
12:00 AM59 °FClear.2 mph82%29.95 "Hg10 mi
11:00 PM
Mon, Sep 26
63 °FClear.2 mph73%29.98 "Hg10 mi
10:00 PM68 °FClear.7 mph60%29.98 "Hg10 mi
9:00 PM72 °FClear.7 mph53%29.95 "Hg10 mi
8:00 PM73 °FClear.5 mph50%29.95 "Hg10 mi
7:00 PM70 °FClear.5 mph50%29.95 "Hg10 mi
6:00 PM82 °FSunny.2 mph30%29.95 "Hg10 mi
5:00 PM84 °FSunny.6 mph27%29.95 "Hg10 mi
4:00 PM86 °FSunny.6 mph24%29.95 "Hg10 mi
3:00 PM86 °FSunny.8 mph24%29.95 "Hg10 mi
2:00 PM84 °FSunny.6 mph33%29.98 "Hg10 mi
Weather by CustomWeather, © 2016

See weather overviewHow to use our weather pages